EST,Max TemperatureF,Mean TemperatureF,Min TemperatureF,Max Dew PointF,MeanDew PointF,Min DewpointF,Max Humidity, Mean Humidity, Min Humidity, Max Sea Level PressureIn, Mean Sea Level PressureIn, Min Sea Level PressureIn, Max VisibilityMiles, Mean VisibilityMiles, Min VisibilityMiles, Max Wind SpeedMPH, Mean Wind SpeedMPH, Max Gust SpeedMPH,PrecipitationIn, CloudCover, Events, WindDirDegrees
2013-1-1,77,65,53,61,57,52,97,79,54,30.22,30.13,30.06,10,7,2,16,3,,0.00,7,,167
2013-1-2,80,70,59,64,59,57,96,78,48,30.09,30.05,29.99,10,9,5,15,3,,0.00,3,,232
2013-1-3,82,68,55,67,61,55,100,88,52,30.16,30.08,30.04,10,5,0,12,2,17,0.00,4,Fog,306
2013-1-4,73,68,64,66,65,62,94,86,76,30.26,30.19,30.13,10,10,7,9,5,,0.00,8,,343
2013-1-5,78,70,62,70,66,60,100,87,68,30.27,30.22,30.17,10,7,0,12,6,16,0.57,6,Fog-Rain,37
2013-1-6,80,70,60,70,65,59,100,93,67,30.21,30.14,30.07,10,4,0,12,2,22,0.51,5,Fog-Rain-Thunderstorm,196
2013-1-7,75,70,66,68,66,64,94,86,71,30.19,30.14,30.10,10,8,2,14,5,21,0.00,7,Rain,20
2013-1-8,78,74,69,70,68,66,96,85,68,30.23,30.17,30.12,10,9,1,13,6,,0.11,6,Rain,112
2013-1-9,80,75,70,72,70,68,94,84,70,30.30,30.25,30.20,10,9,7,18,11,23,0.04,5,Rain,114
2013-1-10,80,74,68,69,66,63,90,76,58,30.32,30.28,30.22,10,10,9,21,10,28,0.00,0,,112
2013-1-11,78,74,68,68,66,64,87,76,62,30.28,30.22,30.18,10,10,10,20,9,24,0.00,2,,117
2013-1-12,79,70,61,67,63,60,97,79,60,30.21,30.16,30.12,10,10,8,13,4,,0.00,2,,108
2013-1-13,78,71,64,66,64,61,87,74,62,30.16,30.12,30.09,10,10,10,16,9,,0.00,2,,117
2013-1-14,80,70,59,66,63,58,96,77,58,30.19,30.17,30.13,10,10,7,15,6,20,0.00,2,,117
2013-1-15,79,69,59,67,62,57,97,79,62,30.16,30.11,30.07,10,9,4,15,5,,0.00,1,,125
2013-1-16,81,68,55,67,60,55,100,85,52,30.12,30.07,30.02,10,5,0,14,2,,0.00,2,Fog,169
2013-1-17,82,70,57,68,62,47,100,81,51,30.11,30.04,29.94,10,7,0,20,5,28,0.00,4,Fog,243
2013-1-18,71,58,46,61,50,37,88,72,53,30.25,30.19,30.11,10,10,4,16,9,24,0.04,5,Rain,6
2013-1-19,73,70,66,66,63,61,94,84,66,30.24,30.17,30.13,10,8,2,13,7,20,0.27,7,Rain,53
2013-1-20,75,68,62,66,64,61,100,90,69,30.16,30.10,30.06,10,6,0,8,4,,0.01,5,Fog,330
2013-1-21,77,70,63,68,64,60,97,87,66,30.08,30.03,29.98,10,9,6,10,3,16,0.00,7,Rain,315
2013-1-22,70,64,57,60,53,47,93,69,53,30.26,30.15,30.03,10,10,9,16,7,25,0.00,0,,343
2013-1-23,71,61,51,54,49,44,89,69,55,30.33,30.29,30.24,10,10,10,13,6,18,0.00,0,,337
2013-1-24,71,58,46,50,46,40,93,68,38,30.32,30.27,30.24,10,9,4,9,4,,0.00,0,,359
2013-1-25,75,62,48,54,50,46,93,73,39,30.30,30.25,30.20,10,8,4,12,3,,0.00,0,,330
2013-1-26,75,60,46,56,50,44,94,78,37,30.28,30.23,30.17,10,7,2,8,3,,0.00,0,,343
2013-1-27,75,60,46,64,53,45,100,83,45,30.31,30.26,30.23,10,7,0,14,2,18,0.00,1,Fog-Rain-Tornado,29
2013-1-28,79,74,69,67,65,63,84,77,58,30.34,30.29,30.25,10,10,7,15,10,18,0.03,6,Rain,107
2013-1-29,78,71,64,68,66,63,94,84,65,30.26,30.21,30.14,10,9,4,17,7,22,0.00,5,Rain,125
2013-1-30,82,72,62,64,63,60,94,73,47,30.13,30.04,29.96,10,10,5,20,6,28,0.00,2,,174
2013-1-31,70,57,44,67,53,34,94,79,35,30.20,30.07,29.94,10,8,2,18,9,25,0.09,4,Rain,306